WAT850 EIKN-EGNX

Flight info

Callsign WAT850
Flight time 0h 56m
Altitude 41000
Route CON DCT OLAPO DCT BOFUM Q37 MALUD
Aircraft CL60/M-SADE3FGHIJ3J4J7P2RWXY/HB1D1

Departure

Time 2026-04-28 19:52
Airport Ireland West Airport Knock (EIKN)

Arrival

Time 2026-04-28 20:48
Airport East Midlands Airport (EGNX)
Time Latitude Longitude Altitude Speed Heading
2026-04-28 19:23 53.91399 -8.81015 656 ft 0 kts 259°
2026-04-28 19:42 53.91400 -8.81011 657 ft 2 kts 259°
2026-04-28 19:43 53.91403 -8.80978 657 ft 2 kts 259°
2026-04-28 19:43 53.91406 -8.80953 657 ft 2 kts 259°
2026-04-28 19:43 53.91408 -8.80937 657 ft 2 kts 251°
2026-04-28 19:43 53.91417 -8.80922 657 ft 0 kts 199°
2026-04-28 19:44 53.91420 -8.80920 657 ft 0 kts 197°
2026-04-28 19:47 53.91420 -8.80921 657 ft 1 kts 197°
2026-04-28 19:47 53.91373 -8.80930 658 ft 11 kts 175°
2026-04-28 19:48 53.91308 -8.80909 658 ft 10 kts 169°
2026-04-28 19:48 53.91209 -8.80875 658 ft 18 kts 167°
2026-04-28 19:48 53.91147 -8.80880 657 ft 11 kts 226°
2026-04-28 19:48 53.91118 -8.81062 653 ft 20 kts 258°
2026-04-28 19:49 53.91087 -8.81347 647 ft 27 kts 261°
2026-04-28 19:49 53.91045 -8.81704 639 ft 34 kts 257°
2026-04-28 19:49 53.91011 -8.82016 626 ft 27 kts 260°
2026-04-28 19:49 53.90964 -8.82410 608 ft 40 kts 258°
2026-04-28 19:50 53.90887 -8.83045 587 ft 27 kts 258°
2026-04-28 19:50 53.90852 -8.83350 575 ft 24 kts 258°
2026-04-28 19:50 53.90819 -8.83525 568 ft 15 kts 227°
2026-04-28 19:51 53.90780 -8.83665 562 ft 11 kts 300°
2026-04-28 19:51 53.90826 -8.83645 563 ft 9 kts 77°
2026-04-28 19:51 53.90828 -8.83595 566 ft 5 kts 87°
2026-04-28 19:51 53.90862 -8.83278 578 ft 68 kts 77°
2026-04-28 19:52 53.91020 -8.81964 640 ft 149 kts 76°
2026-04-28 19:52 53.91259 -8.80120 1211 ft 174 kts 80°
2026-04-28 19:52 53.91451 -8.78037 2170 ft 186 kts 81°
2026-04-28 19:52 53.91665 -8.75981 3333 ft 183 kts 77°
2026-04-28 19:53 53.91948 -8.73830 4300 ft 199 kts 76°
2026-04-28 19:53 53.92270 -8.71472 5297 ft 215 kts 76°
2026-04-28 19:53 53.92618 -8.69000 6458 ft 224 kts 76°
2026-04-28 19:53 53.92979 -8.66465 7631 ft 228 kts 76°
2026-04-28 19:54 53.93325 -8.63907 8846 ft 230 kts 79°
2026-04-28 19:54 53.93263 -8.61176 9879 ft 243 kts 97°
2026-04-28 19:54 53.92928 -8.58248 10693 ft 261 kts 97°
2026-04-28 19:54 53.92572 -8.55179 11339 ft 284 kts 97°
2026-04-28 19:55 53.92171 -8.51655 11581 ft 317 kts 97°
2026-04-28 19:55 53.91735 -8.47849 12108 ft 339 kts 97°
2026-04-28 19:55 53.91277 -8.43873 12791 ft 351 kts 97°
2026-04-28 19:55 53.90804 -8.39775 13615 ft 357 kts 97°
2026-04-28 19:56 53.90328 -8.35661 14467 ft 361 kts 97°
2026-04-28 19:56 53.89840 -8.31442 15293 ft 366 kts 98°
2026-04-28 19:56 53.89348 -8.27207 16107 ft 370 kts 98°
2026-04-28 19:56 53.88848 -8.22903 16899 ft 375 kts 98°
2026-04-28 19:57 53.88342 -8.18561 17666 ft 378 kts 98°
2026-04-28 19:57 53.87832 -8.14193 18353 ft 383 kts 98°
2026-04-28 19:57 53.87312 -8.09748 19023 ft 387 kts 98°
2026-04-28 19:57 53.86788 -8.05287 19690 ft 390 kts 98°
2026-04-28 19:58 53.86509 -8.00739 20354 ft 387 kts 85°
2026-04-28 19:58 53.86727 -7.96225 20903 ft 391 kts 82°
2026-04-28 19:58 53.86969 -7.91635 21476 ft 395 kts 82°
2026-04-28 19:58 53.87206 -7.86971 22036 ft 398 kts 82°
2026-04-28 19:59 53.87441 -7.82284 22575 ft 401 kts 82°
2026-04-28 19:59 53.87671 -7.77591 23092 ft 403 kts 82°
2026-04-28 19:59 53.87902 -7.72819 23576 ft 406 kts 82°
2026-04-28 19:59 53.88132 -7.68006 24005 ft 410 kts 82°
2026-04-28 20:00 53.88359 -7.63168 24456 ft 412 kts 82°
2026-04-28 20:00 53.88585 -7.58299 24876 ft 415 kts 82°
2026-04-28 20:00 53.88808 -7.53425 25250 ft 418 kts 83°
2026-04-28 20:00 53.89029 -7.48528 25651 ft 420 kts 82°
2026-04-28 20:01 53.89253 -7.43520 26053 ft 422 kts 83°
2026-04-28 20:01 53.89469 -7.38607 26378 ft 425 kts 83°
2026-04-28 20:01 53.89689 -7.33563 26694 ft 428 kts 83°
2026-04-28 20:01 53.89905 -7.28525 26998 ft 424 kts 83°
2026-04-28 20:02 53.90113 -7.23610 27306 ft 415 kts 83°
2026-04-28 20:02 53.90315 -7.18781 27695 ft 408 kts 83°
2026-04-28 20:02 53.90514 -7.13965 28098 ft 406 kts 83°
2026-04-28 20:02 53.90710 -7.09235 28390 ft 409 kts 83°
2026-04-28 20:03 53.90909 -7.04380 28411 ft 417 kts 83°
2026-04-28 20:03 53.91304 -6.94503 28408 ft 417 kts 83°
2026-04-28 20:04 53.91683 -6.84813 28410 ft 411 kts 83°
2026-04-28 20:04 53.92052 -6.75150 28415 ft 410 kts 83°
2026-04-28 20:05 53.92415 -6.65501 28417 ft 412 kts 83°
2026-04-28 20:05 53.92768 -6.55850 28414 ft 411 kts 83°
2026-04-28 20:06 53.93115 -6.46169 28422 ft 410 kts 83°
2026-04-28 20:06 53.93453 -6.36507 28426 ft 410 kts 83°
2026-04-28 20:07 53.93782 -6.26870 28425 ft 410 kts 84°
2026-04-28 20:07 53.94104 -6.17184 28435 ft 409 kts 84°
2026-04-28 20:08 53.94408 -6.07562 28437 ft 409 kts 84°
2026-04-28 20:08 53.94698 -5.97949 28441 ft 408 kts 84°
2026-04-28 20:09 53.95001 -5.88317 28432 ft 408 kts 84°
2026-04-28 20:09 53.95295 -5.78715 28422 ft 408 kts 84°
2026-04-28 20:10 53.95580 -5.69124 28424 ft 408 kts 84°
2026-04-28 20:10 53.95855 -5.59536 28420 ft 408 kts 84°
2026-04-28 20:11 53.96125 -5.49860 28419 ft 407 kts 84°
2026-04-28 20:11 53.96384 -5.40274 28421 ft 407 kts 84°
2026-04-28 20:12 53.96635 -5.30689 28421 ft 407 kts 84°
2026-04-28 20:12 53.96878 -5.21111 28422 ft 406 kts 84°
2026-04-28 20:13 53.97113 -5.11514 28425 ft 406 kts 84°
2026-04-28 20:13 53.97342 -5.01858 28420 ft 406 kts 84°
2026-04-28 20:14 53.97481 -4.92311 28420 ft 408 kts 90°
2026-04-28 20:14 53.96932 -4.87561 28427 ft 415 kts 103°
2026-04-28 20:14 53.95637 -4.83099 28433 ft 426 kts 117°
2026-04-28 20:15 53.92137 -4.74897 28419 ft 429 kts 120°
2026-04-28 20:15 53.88640 -4.66796 28413 ft 428 kts 120°
2026-04-28 20:16 53.85111 -4.58666 28420 ft 428 kts 120°
2026-04-28 20:16 53.81580 -4.50531 28412 ft 427 kts 120°
2026-04-28 20:17 53.78068 -4.42474 28414 ft 427 kts 120°
2026-04-28 20:17 53.74535 -4.34418 28411 ft 426 kts 120°
2026-04-28 20:18 53.71052 -4.26517 28407 ft 426 kts 120°
2026-04-28 20:18 53.67514 -4.18529 28399 ft 426 kts 120°
2026-04-28 20:19 53.63971 -4.10566 28402 ft 424 kts 120°
2026-04-28 20:19 53.60417 -4.02611 28411 ft 424 kts 120°
2026-04-28 20:20 53.56845 -3.94643 28419 ft 424 kts 120°
2026-04-28 20:20 53.53256 -3.86668 28399 ft 424 kts 120°
2026-04-28 20:21 53.49695 -3.78788 28408 ft 423 kts 120°
2026-04-28 20:21 53.46136 -3.70935 28397 ft 423 kts 120°
2026-04-28 20:22 53.42583 -3.63123 28403 ft 422 kts 120°
2026-04-28 20:22 53.38763 -3.55530 28393 ft 426 kts 123°
2026-04-28 20:23 53.34877 -3.48107 28403 ft 426 kts 123°
2026-04-28 20:23 53.32898 -3.44336 28292 ft 428 kts 123°
2026-04-28 20:23 53.30935 -3.40598 27800 ft 430 kts 124°
2026-04-28 20:23 53.28959 -3.36852 27262 ft 422 kts 124°
2026-04-28 20:24 53.27029 -3.33201 26733 ft 416 kts 124°
2026-04-28 20:24 53.25134 -3.29619 26187 ft 411 kts 124°
2026-04-28 20:24 53.23234 -3.26030 25650 ft 406 kts 124°
2026-04-28 20:24 53.21376 -3.22525 25108 ft 403 kts 124°
2026-04-28 20:25 53.19591 -3.19109 24597 ft 397 kts 122°
2026-04-28 20:25 53.18010 -3.15433 24062 ft 388 kts 116°
2026-04-28 20:25 53.16592 -3.11629 23538 ft 385 kts 116°
2026-04-28 20:25 53.15180 -3.07848 23035 ft 382 kts 115°
2026-04-28 20:26 53.13773 -3.04096 22537 ft 380 kts 116°
2026-04-28 20:26 53.12379 -3.00388 22035 ft 378 kts 116°
2026-04-28 20:26 53.10982 -2.96686 21534 ft 374 kts 116°
2026-04-28 20:26 53.09593 -2.93016 21040 ft 371 kts 116°
2026-04-28 20:27 53.08258 -2.89382 20544 ft 365 kts 111°
2026-04-28 20:27 53.07482 -2.85521 20107 ft 351 kts 95°
2026-04-28 20:27 53.07174 -2.81507 19927 ft 346 kts 93°
2026-04-28 20:27 53.06879 -2.77544 19735 ft 350 kts 94°
2026-04-28 20:28 53.06573 -2.73524 19505 ft 349 kts 94°
2026-04-28 20:28 53.06267 -2.69564 19271 ft 349 kts 94°
2026-04-28 20:28 53.05956 -2.65569 19036 ft 348 kts 94°
2026-04-28 20:28 53.05644 -2.61608 18803 ft 347 kts 93°
2026-04-28 20:29 53.05326 -2.57593 18568 ft 346 kts 94°
2026-04-28 20:29 53.05011 -2.53660 18323 ft 346 kts 94°
2026-04-28 20:29 53.04696 -2.49773 18082 ft 333 kts 94°
2026-04-28 20:29 53.04391 -2.46048 17897 ft 317 kts 94°
2026-04-28 20:30 53.04094 -2.42439 17571 ft 308 kts 94°
2026-04-28 20:30 53.03804 -2.38912 17141 ft 301 kts 94°
2026-04-28 20:30 53.03526 -2.35557 16917 ft 291 kts 94°
2026-04-28 20:30 53.03253 -2.32278 16699 ft 280 kts 94°
2026-04-28 20:31 53.03069 -2.29110 16502 ft 271 kts 88°
2026-04-28 20:31 53.03160 -2.25964 16304 ft 273 kts 84°
2026-04-28 20:31 53.03311 -2.22774 16117 ft 274 kts 84°
2026-04-28 20:31 53.03448 -2.19720 15940 ft 274 kts 84°
2026-04-28 20:32 53.03591 -2.16450 15747 ft 273 kts 84°
2026-04-28 20:32 53.03726 -2.13313 15565 ft 273 kts 84°
2026-04-28 20:32 53.03859 -2.10188 15375 ft 272 kts 84°
2026-04-28 20:32 53.03992 -2.06991 15189 ft 271 kts 84°
2026-04-28 20:33 53.04120 -2.03877 14998 ft 272 kts 84°
2026-04-28 20:33 53.04246 -2.00744 14813 ft 272 kts 84°
2026-04-28 20:33 53.04372 -1.97600 14631 ft 272 kts 84°
2026-04-28 20:33 53.04497 -1.94440 14452 ft 272 kts 84°
2026-04-28 20:34 53.04620 -1.91284 14266 ft 273 kts 85°
2026-04-28 20:34 53.04740 -1.88162 14082 ft 272 kts 84°
2026-04-28 20:34 53.04861 -1.85008 13905 ft 272 kts 85°
2026-04-28 20:34 53.04978 -1.81892 13729 ft 271 kts 85°
2026-04-28 20:35 53.05094 -1.78767 13546 ft 270 kts 85°
2026-04-28 20:35 53.05209 -1.75663 13364 ft 270 kts 85°
2026-04-28 20:35 53.05324 -1.72524 13172 ft 270 kts 84°
2026-04-28 20:35 53.05436 -1.69437 13001 ft 269 kts 84°
2026-04-28 20:36 53.05511 -1.66313 12817 ft 269 kts 87°
2026-04-28 20:36 53.05513 -1.63203 12633 ft 267 kts 88°
2026-04-28 20:36 53.05513 -1.60130 12454 ft 267 kts 88°
2026-04-28 20:36 53.05512 -1.57007 12253 ft 267 kts 88°
2026-04-28 20:37 53.05510 -1.53961 12105 ft 265 kts 88°
2026-04-28 20:37 53.05506 -1.50846 11893 ft 266 kts 88°
2026-04-28 20:37 53.05502 -1.47798 11731 ft 264 kts 88°
2026-04-28 20:37 53.05497 -1.44701 11549 ft 264 kts 88°
2026-04-28 20:38 53.05490 -1.41645 11358 ft 264 kts 88°
2026-04-28 20:38 53.05484 -1.38597 11202 ft 263 kts 88°
2026-04-28 20:38 53.05476 -1.35566 11004 ft 262 kts 88°
2026-04-28 20:38 53.05435 -1.32528 10844 ft 262 kts 95°
2026-04-28 20:39 53.04735 -1.29743 10636 ft 269 kts 127°
2026-04-28 20:39 53.03136 -1.28067 10505 ft 282 kts 160°
2026-04-28 20:39 53.01131 -1.28122 10394 ft 298 kts 192°
2026-04-28 20:39 52.99295 -1.29828 10120 ft 310 kts 220°
2026-04-28 20:40 52.98137 -1.32801 9741 ft 313 kts 253°
2026-04-28 20:40 52.98015 -1.36328 9341 ft 303 kts 286°
2026-04-28 20:40 52.98724 -1.39515 8922 ft 294 kts 296°
2026-04-28 20:40 52.99333 -1.42756 8495 ft 293 kts 280°
2026-04-28 20:41 52.99278 -1.46076 8099 ft 286 kts 257°
2026-04-28 20:41 52.98572 -1.49082 7748 ft 277 kts 237°
2026-04-28 20:41 52.97331 -1.51539 7105 ft 278 kts 217°
2026-04-28 20:41 52.95693 -1.53178 6294 ft 279 kts 195°
2026-04-28 20:42 52.93807 -1.53925 5547 ft 278 kts 184°
2026-04-28 20:42 52.91925 -1.54456 4891 ft 277 kts 184°
2026-04-28 20:42 52.90030 -1.55003 4289 ft 275 kts 184°
2026-04-28 20:42 52.88146 -1.55549 3685 ft 273 kts 184°
2026-04-28 20:43 52.86265 -1.56020 3127 ft 269 kts 185°
2026-04-28 20:43 52.84530 -1.57003 2967 ft 255 kts 195°
2026-04-28 20:43 52.82904 -1.57490 2874 ft 220 kts 162°
2026-04-28 20:43 52.81721 -1.56437 2840 ft 173 kts 119°
2026-04-28 20:44 52.81546 -1.54771 2745 ft 140 kts 71°
2026-04-28 20:44 52.82098 -1.53527 2556 ft 127 kts 49°
2026-04-28 20:44 52.82604 -1.52538 2449 ft 101 kts 63°
2026-04-28 20:44 52.82849 -1.51422 2295 ft 107 kts 76°
2026-04-28 20:45 52.82887 -1.50172 2127 ft 110 kts 90°
2026-04-28 20:45 52.82820 -1.48928 1956 ft 109 kts 87°
2026-04-28 20:45 52.82800 -1.47665 1824 ft 109 kts 85°
2026-04-28 20:45 52.82810 -1.46420 1677 ft 109 kts 84°
2026-04-28 20:46 52.82839 -1.45145 1534 ft 109 kts 83°
2026-04-28 20:46 52.82884 -1.43870 1464 ft 113 kts 84°
2026-04-28 20:46 52.82923 -1.42566 1298 ft 115 kts 85°
2026-04-28 20:46 52.82941 -1.41221 1044 ft 113 kts 85°
2026-04-28 20:47 52.82970 -1.39807 1006 ft 135 kts 84°
2026-04-28 20:47 52.83007 -1.38321 788 ft 125 kts 85°
2026-04-28 20:47 52.83040 -1.36716 683 ft 142 kts 86°
2026-04-28 20:47 52.83062 -1.35141 445 ft 129 kts 85°
2026-04-28 20:48 52.83079 -1.33768 311 ft 107 kts 84°
2026-04-28 20:48 52.83110 -1.32646 297 ft 86 kts 88°
2026-04-28 20:48 52.83125 -1.31821 287 ft 62 kts 85°
2026-04-28 20:48 52.83128 -1.31419 285 ft 15 kts 88°
2026-04-28 20:49 52.83072 -1.31316 285 ft 14 kts 182°
2026-04-28 20:49 52.82996 -1.31317 285 ft 9 kts 185°
2026-04-28 20:49 52.82958 -1.31419 283 ft 14 kts 278°
2026-04-28 20:49 52.82953 -1.31616 281 ft 16 kts 269°
2026-04-28 20:50 52.82913 -1.31714 280 ft 8 kts 176°
2026-04-28 20:50 52.82845 -1.31688 279 ft 7 kts 182°
2026-04-28 20:50 52.82812 -1.31689 279 ft 4 kts 179°
2026-04-28 20:50 52.82809 -1.31689 279 ft 0 kts 178°